Back to catalog

FENGYUN 1C DEB

AliveSSO
NORAD 31456·DEBRIS·🇨🇳 China

Launched May 10, 1999 from Taiyuan Satellite Launch Center

Loading…

Next Passes (next 24 hours)

TLE

FreshSource: Space-Track

Epoch: Sep 14, 2026, 13:31 UTC

1 31456U 99025BUU 26257.56332941  .00001738  00000-0  51062-3 0  9995
2 31456  98.5877   6.8876 0067088 204.6854 155.1121 14.43773890 14375

Track FENGYUN 1C DEB in real time with AllMySat

Download on the App Store